GFSGBSN_700_spd_096.txt.gz
Wind_Speed
14 13 12 11 11 12 12 13 13 13 13 14 14 13 12 11 10 10 9 9 10 10 11 12 13 16 17 16 19 11 17 18 19 19 19 20 17 15 11 14 9 3 1 9 19 20 21
16 14 13 11 11 11 12 12 13 13 14 13 13 14 14 12 11 9 8 8 8 9 10 11 11 14 17 17 18 16 16 19 19 18 18 20 16 15 14 16 13 5 7 16 22 21 15
17 16 14 12 11 11 12 12 13 14 12 11 11 12 12 13 12 9 7 6 6 7 7 9 10 11 16 21 19 18 15 19 20 19 17 21 18 13 13 15 11 14 16 20 21 20 19
18 16 16 13 11 10 11 12 13 13 11 10 11 11 10 10 11 12 8 5 4 4 5 6 8 9 14 20 20 18 15 20 21 21 22 21 19 11 7 10 14 14 16 21 22 22 19
18 16 15 14 12 11 11 12 13 13 11 10 10 11 11 11 11 10 9 7 4 2 2 4 5 6 10 19 19 20 15 18 21 22 21 23 21 12 12 12 11 18 14 15 20 18 18
21 17 15 14 13 12 11 12 13 12 11 10 10 11 11 11 10 9 8 7 5 3 3 3 1 5 8 13 22 22 19 19 20 21 20 21 21 13 13 16 14 13 12 17 18 23 21
22 19 15 14 14 13 11 12 12 11 10 10 11 10 11 10 8 7 7 6 9 7 3 2 3 9 12 17 21 22 21 16 20 18 16 20 18 23 18 15 8 8 8 10 10 14 14
21 19 16 13 13 13 12 11 11 10 10 9 10 9 9 8 5 4 7 9 8 7 6 4 3 8 9 16 18 21 21 15 19 18 17 18 23 20 15 12 8 12 14 11 10 15 13
21 18 16 14 13 12 11 11 11 10 9 9 9 9 8 5 2 4 5 6 8 12 10 7 3 5 6 10 13 20 19 12 16 18 21 20 18 18 16 14 11 10 12 12 14 16 11
23 17 15 14 12 12 10 10 11 10 9 8 8 7 5 2 1 4 6 7 7 10 4 5 5 3 4 6 8 17 16 11 12 18 17 18 16 20 19 18 14 11 9 8 12 13 7
23 17 15 13 12 11 9 10 11 10 8 7 5 5 2 3 5 8 7 7 6 4 0 2 3 6 7 4 7 15 17 11 11 14 18 15 21 19 21 19 17 3 9 8 10 9 13
24 19 15 13 11 11 10 10 10 10 8 5 3 2 5 8 7 6 6 5 5 0 5 2 2 1 3 4 8 13 16 12 11 12 18 8 16 16 19 17 17 7 10 8 10 10 8
25 20 17 14 11 10 10 10 11 10 7 3 2 5 9 7 6 5 4 5 1 5 3 2 1 3 5 5 6 12 17 15 11 14 18 14 14 16 19 19 16 15 16 10 8 8 3
25 21 18 15 11 10 10 10 12 9 5 1 7 10 8 6 5 5 6 4 2 2 2 1 3 2 8 6 6 10 15 18 15 15 17 19 20 20 19 22 19 24 22 13 8 11 8
24 21 18 14 11 11 11 11 15 8 3 4 10 10 8 6 4 5 6 1 2 1 2 4 3 4 5 10 7 9 14 17 14 13 11 19 17 18 15 21 17 21 27 22 13 6 14
24 21 18 15 12 12 11 13 10 5 3 7 14 11 8 5 5 3 3 3 2 1 4 4 4 2 5 10 11 12 11 14 16 14 10 9 17 15 21 16 21 15 23 25 19 12 12
24 21 18 15 13 12 12 12 8 4 5 8 16 8 8 5 5 3 1 1 2 2 3 3 4 3 3 7 10 12 9 4 14 15 12 8 12 15 18 24 21 23 17 28 26 26 12
24 20 18 17 15 14 13 11 8 4 8 12 14 6 9 7 3 4 2 2 1 3 4 4 4 3 2 3 9 9 11 4 14 11 16 14 11 13 22 15 19 24 23 24 24 23 22
22 20 19 17 16 14 12 8 7 5 11 17 13 8 10 6 4 4 2 1 2 3 6 3 3 2 6 3 3 7 7 14 9 9 11 17 11 12 12 13 18 20 23 22 22 24 25
21 19 20 18 15 12 9 8 7 7 14 18 13 6 9 7 7 4 3 3 4 6 5 3 3 2 1 2 9 7 7 7 11 5 11 15 10 15 17 22 20 18 18 22 21 22 18
22 19 17 17 14 10 9 8 8 9 15 17 15 11 11 7 4 3 2 4 4 6 4 2 3 3 3 3 5 6 7 2 17 4 3 7 6 12 6 10 12 14 17 20 22 21 16
20 19 16 14 13 12 8 6 7 11 17 18 18 13 12 8 5 3 2 4 4 5 2 3 4 2 3 4 2 8 6 12 6 8 6 5 6 9 9 9 9 10 9 12 14 14 15
19 18 15 14 13 9 4 4 6 11 17 18 17 15 11 11 7 4 4 4 3 1 1 5 5 4 3 4 5 8 12 8 9 10 9 9 14 10 13 8 8 10 8 8 7 6 10
19 17 14 11 12 7 2 3 6 11 16 17 16 15 12 8 7 7 4 1 3 2 1 4 8 5 6 6 4 6 6 5 6 6 7 11 12 16 14 4 9 4 8 6 7 6 4
19 16 14 10 8 6 3 3 6 10 15 19 18 17 15 8 8 8 4 3 2 2 3 1 6 10 7 10 5 5 6 6 3 5 6 8 12 9 8 21 4 3 7 6 7 5 6
20 15 14 10 8 8 6 5 7 10 14 19 21 18 17 10 9 10 5 3 3 3 2 3 4 8 11 7 8 8 5 2 5 4 6 4 6 9 9 9 9 6 7 7 7 8 8
21 15 15 12 12 12 11 8 8 11 13 16 20 22 20 16 14 12 7 5 5 5 3 3 4 5 8 6 7 7 8 6 5 5 6 7 6 9 10 9 5 5 9 9 7 4 7
20 16 16 14 14 15 16 14 11 13 13 14 17 18 19 20 13 15 11 7 4 5 4 6 2 3 4 5 5 5 5 7 6 7 6 6 6 8 7 7 6 9 9 7 9 10 8
21 17 16 15 15 16 17 17 15 14 14 14 16 17 18 20 15 15 14 11 9 7 8 8 7 5 7 5 5 4 3 4 6 4 11 5 8 6 7 6 10 9 13 12 14 12 10

GFSGBSN_700_spd_102.txt.gz
Wind_Speed
12 12 12 11 10 10 10 10 10 10 10 9 8 9 9 9 9 9 9 10 10 11 12 12 12 13 15 14 10 13 13 16 15 15 15 16 12 12 13 10 8 9 8 4 14 21 24
13 12 12 12 11 11 11 11 11 12 11 10 9 9 9 10 10 9 9 8 9 10 10 11 11 12 14 16 18 24 8 15 16 15 14 15 12 11 11 10 10 5 7 7 8 25 24
17 15 13 12 12 11 11 11 11 11 10 10 9 9 9 9 9 9 8 8 7 8 9 10 10 11 13 18 24 24 17 11 16 16 12 14 13 11 7 11 8 7 6 16 16 23 19
17 16 14 12 12 11 11 10 10 10 10 10 9 9 9 9 8 8 8 9 8 8 8 8 8 9 9 18 22 22 18 13 15 15 12 10 15 14 15 9 8 7 11 19 26 21 27
18 16 15 13 12 11 11 10 9 10 9 9 8 7 8 8 8 7 8 8 8 9 8 6 6 5 3 14 15 16 15 11 12 12 11 11 16 16 12 17 9 14 11 16 18 17 32
18 16 15 14 13 12 11 10 9 9 8 8 8 8 8 7 7 6 5 6 10 14 9 6 7 2 5 8 7 11 16 13 14 13 15 17 13 16 18 21 17 10 11 18 23 32 32
20 17 15 14 13 11 10 9 7 8 8 8 9 9 8 7 6 5 4 5 16 12 5 7 7 4 8 6 10 10 11 14 13 14 16 16 16 21 19 19 22 22 14 16 15 11 22
20 18 16 15 13 11 10 8 7 6 6 7 8 8 7 7 5 4 2 9 9 7 8 6 9 12 9 6 6 11 14 14 16 17 16 16 22 18 17 18 20 21 10 12 23 30 3
21 18 16 15 12 11 9 7 7 7 7 7 7 7 6 5 4 4 5 5 5 6 6 4 6 4 8 9 9 12 15 15 13 15 18 22 15 18 19 20 10 14 19 8 17 17 14
21 19 16 14 12 10 8 6 7 8 8 8 6 5 5 4 2 9 11 5 6 9 6 3 0 3 3 7 8 13 16 15 12 15 17 20 17 17 20 19 13 9 9 4 13 8 19
22 19 16 14 12 10 8 7 7 8 8 8 6 5 3 2 3 7 3 5 6 7 4 1 2 7 3 7 4 11 14 17 14 14 16 20 19 19 17 19 16 8 10 7 4 6 13
25 21 17 15 13 11 9 8 8 8 9 7 5 4 1 2 7 7 4 7 5 4 4 1 2 1 3 8 5 10 12 17 12 12 17 19 15 17 19 16 15 8 13 15 8 10 14
26 22 19 16 13 12 11 11 10 9 10 6 5 3 4 6 7 5 5 4 5 7 1 5 3 4 6 8 9 9 12 17 17 13 18 17 20 16 12 16 15 14 16 6 3 6 6
26 23 19 16 14 13 12 12 11 10 11 6 5 4 6 7 9 9 3 4 8 7 6 5 3 6 5 5 10 7 11 18 18 16 16 17 20 16 17 19 19 18 16 8 1 6 3
27 24 20 16 14 13 13 13 12 12 8 5 5 6 6 7 6 7 2 7 9 9 7 9 8 11 8 7 7 8 11 14 17 18 21 15 18 18 17 17 19 17 22 20 17 6 11
27 26 21 16 15 15 14 14 13 10 6 6 7 9 1 2 6 6 5 14 8 4 8 8 12 7 6 12 9 9 12 12 14 18 18 16 14 18 17 16 17 20 14 20 11 5 6
25 26 23 18 16 15 15 15 13 8 6 6 8 5 6 6 8 7 9 5 4 5 9 6 10 12 12 5 13 15 2 6 7 9 6 17 14 17 18 20 18 19 18 14 25 23 6
26 25 23 19 18 15 14 13 10 6 7 11 16 6 11 6 9 10 9 6 6 5 8 10 10 8 11 9 8 12 3 7 4 3 10 10 13 9 15 15 16 19 19 18 17 22 20
27 24 22 19 17 16 12 11 7 6 10 12 13 8 9 9 12 9 7 7 3 5 7 10 9 9 11 11 7 7 6 9 6 1 8 7 12 13 16 15 17 20 20 21 18 18 22
26 23 22 18 17 15 11 10 7 6 12 15 11 7 9 12 12 11 8 7 5 4 6 8 8 9 8 9 6 9 15 9 6 7 10 12 14 18 19 7 13 19 22 17 21 22 19
24 21 21 18 16 15 13 11 11 10 16 22 13 4 8 7 12 9 7 5 4 7 4 9 6 7 11 9 12 21 9 5 4 9 8 12 17 17 20 11 18 14 20 20 20 24 15
23 23 21 19 16 15 14 11 11 11 19 24 14 9 7 6 7 6 8 9 6 6 5 4 8 9 9 9 7 16 6 9 5 6 9 12 14 14 18 14 16 22 19 21 23 21 20
24 24 22 19 17 14 14 10 9 13 21 25 15 15 7 7 7 8 8 3 4 6 6 6 6 6 7 2 3 8 5 5 4 5 12 7 6 7 14 6 12 19 8 4 20 17 17
25 25 22 18 17 15 12 11 10 14 22 31 19 19 13 10 9 8 7 4 4 4 4 4 5 5 8 10 9 4 6 6 7 9 10 11 8 10 12 8 8 1 8 3 4 13 11
25 24 23 19 17 16 13 11 11 15 21 29 29 21 16 11 10 14 8 5 5 6 1 5 6 8 9 3 5 7 9 10 6 4 6 12 9 7 4 2 8 5 2 11 6 3 12
24 24 22 20 18 17 15 14 13 15 18 25 28 24 22 8 4 6 7 8 7 4 5 3 9 5 4 5 7 5 4 9 3 5 7 8 8 8 2 4 4 5 8 5 10 9 10
21 22 20 19 18 18 17 16 16 15 17 21 26 25 26 23 1 4 7 8 6 5 1 4 4 3 4 6 9 13 4 15 11 9 5 13 6 11 7 10 10 9 16 7 9 7 1
18 20 19 19 18 18 17 18 19 16 17 19 25 27 27 29 8 7 9 8 6 7 6 6 3 3 5 7 6 3 4 5 6 3 1 2 3 8 13 16 7 11 1 5 6 1 2
23 24 22 19 17 18 17 18 20 20 16 18 20 25 29 28 17 10 11 12 11 9 5 4 1 3 4 4 5 3 2 4 3 4 6 7 3 2 8 3 11 8 10 7 7 7 3

GFSGBSN_700_spd_105.txt.gz
Wind_Speed
12 11 10 10 9 9 9 9 9 9 9 8 7 8 8 8 9 9 9 9 9 10 10 11 11 11 11 13 14 14 7 13 13 13 14 16 16 11 14 11 11 11 9 9 22 35 28
14 13 12 11 10 10 9 9 10 10 9 8 8 8 8 8 9 10 10 10 9 9 9 10 10 11 11 12 16 21 11 10 14 13 14 17 15 11 7 9 16 14 5 12 15 33 29
16 15 14 13 13 12 10 10 9 9 9 8 8 8 8 9 9 9 10 10 10 10 9 9 10 10 11 10 17 20 13 9 12 14 13 15 15 10 7 8 15 9 3 10 4 26 24
18 16 14 13 12 11 11 9 9 8 8 8 7 7 7 8 9 9 8 9 10 10 10 9 8 8 8 13 19 21 18 13 10 14 15 11 12 14 14 10 9 9 12 8 10 24 29
19 16 14 13 13 12 10 9 8 8 7 7 7 7 7 8 9 8 8 8 10 14 11 9 8 6 3 7 11 13 16 11 9 13 14 11 9 15 13 14 16 14 11 10 10 20 10
19 17 15 14 13 11 10 9 8 7 7 7 7 7 7 7 7 5 5 7 10 13 9 7 8 5 12 12 9 6 11 10 7 7 11 7 16 19 18 16 19 19 11 5 6 8 24
21 18 16 14 12 11 10 8 7 7 7 8 8 8 7 6 6 5 4 4 10 8 12 6 4 1 8 10 11 7 9 17 12 13 15 17 16 16 17 12 14 23 15 8 18 13 9
23 20 18 16 13 11 10 8 7 8 9 8 8 7 7 5 5 4 4 7 5 9 8 1 4 8 13 4 7 7 9 12 15 14 13 12 18 13 11 15 10 15 7 3 15 20 11
25 22 20 18 15 12 10 8 7 8 9 9 8 7 5 4 3 4 7 10 10 15 14 4 4 12 9 10 10 7 12 14 12 13 14 16 15 7 14 18 14 12 9 2 4 5 6
27 24 21 19 17 14 11 9 9 9 10 10 8 6 4 2 4 9 10 15 15 11 9 3 0 3 8 9 5 10 13 14 14 13 9 16 14 18 18 20 19 11 11 10 5 4 5
26 25 22 19 16 15 13 11 10 11 10 11 8 5 3 1 7 5 8 6 4 8 4 2 2 13 2 3 6 7 14 16 17 13 10 16 14 15 16 22 19 12 4 2 7 5 13
25 26 24 20 17 15 13 12 12 12 11 11 8 5 2 4 9 10 7 7 8 5 5 4 5 2 4 6 3 9 6 9 12 14 12 18 18 16 16 8 16 15 14 9 9 10 7
25 26 26 21 18 16 14 13 13 12 11 11 7 4 3 9 12 10 8 13 5 6 1 6 6 6 6 5 6 11 7 12 13 7 9 9 14 13 14 5 14 8 13 6 1 0 5
25 25 26 23 18 17 16 15 15 12 12 11 6 5 6 8 9 6 6 5 5 7 11 10 7 8 7 3 2 11 8 9 13 16 20 17 15 15 10 14 15 16 21 12 6 4 2
26 25 25 24 19 18 18 17 16 14 11 8 5 6 10 10 7 4 3 3 5 16 12 10 11 9 4 10 10 5 7 11 12 13 19 10 13 10 19 18 21 18 18 14 8 7 7
26 26 25 24 20 18 18 17 16 14 9 5 5 7 9 11 8 4 2 6 10 3 10 6 12 14 7 8 13 12 7 5 13 11 18 18 19 11 6 14 20 20 13 17 8 4 3
26 26 25 23 22 19 17 16 14 11 7 4 5 7 7 5 1 6 10 8 8 7 9 7 11 14 7 5 3 12 9 5 7 4 4 6 12 19 13 17 16 20 14 14 13 13 6
27 26 24 22 22 19 17 14 11 8 5 7 13 12 4 6 9 10 9 13 11 8 7 6 9 9 11 4 6 9 5 7 5 7 7 5 5 12 12 9 15 16 18 18 17 6 12
27 26 24 22 20 19 16 12 9 5 5 11 15 11 16 9 15 13 8 9 11 10 9 10 9 9 11 6 2 8 10 3 10 13 12 7 2 8 7 2 7 12 19 17 20 20 22
27 25 23 20 20 18 16 12 8 6 7 13 17 5 8 14 12 14 13 12 14 5 5 5 12 7 5 5 10 13 9 14 11 6 12 10 12 9 9 13 10 19 15 19 16 22 22
27 25 23 21 20 19 16 13 10 9 10 16 20 12 6 9 12 10 11 13 6 5 2 6 9 8 10 7 2 5 12 7 1 4 11 10 11 15 12 10 10 12 13 14 21 16 17
28 25 24 22 20 19 16 13 11 11 14 23 21 14 13 11 5 9 19 9 11 6 6 4 8 7 11 4 4 10 6 5 11 9 7 4 12 12 13 10 8 10 11 17 14 19 5
26 26 24 22 20 18 17 14 11 12 17 26 27 19 8 7 3 8 9 10 5 7 8 9 9 6 8 5 8 9 4 5 3 9 4 7 8 6 2 11 9 6 7 13 8 6 11
23 24 24 23 20 18 17 15 12 13 18 23 28 23 16 14 9 5 10 11 6 7 8 5 8 4 9 10 10 2 7 5 2 8 10 10 7 5 6 6 2 5 9 13 11 18 18
24 23 22 21 21 19 17 15 14 14 16 22 25 25 20 21 9 9 11 8 7 6 5 5 6 10 15 5 3 4 6 3 4 5 5 10 7 4 2 1 7 3 6 13 15 10 11
21 21 20 20 20 20 19 17 16 16 16 21 26 29 24 21 7 5 5 7 5 6 5 3 10 11 7 4 4 0 3 4 4 3 4 6 4 3 1 5 3 9 3 10 7 5 2
18 16 15 18 18 19 19 18 18 17 17 20 25 33 28 28 9 2 6 3 4 5 7 11 7 7 6 3 4 2 9 10 4 6 2 12 8 5 11 3 9 7 8 8 3 4 5
19 17 17 18 19 18 18 18 19 19 18 18 22 29 32 33 18 8 3 9 4 9 3 6 5 1 4 5 8 1 2 2 5 1 2 4 1 7 6 3 1 5 4 2 11 6 8
24 25 23 22 21 19 17 16 18 20 20 18 21 26 33 35 30 21 10 11 10 9 7 1 1 4 5 3 0 1 3 2 2 4 3 1 1 6 8 8 15 9 7 8 9 13 11

GFSGBSN_700_spd_111.txt.gz
Wind_Speed
12 11 10 9 8 8 8 7 7 7 6 5 5 4 5 5 6 6 6 6 6 6 5 5 6 6 6 5 12 8 9 12 13 13 14 17 16 16 11 5 8 11 13 15 20 33 24
13 12 11 9 9 8 7 7 7 6 6 6 7 6 6 6 6 6 6 6 7 7 6 4 3 4 5 8 13 14 8 8 12 14 13 16 18 16 12 6 9 13 17 15 30 30 25
16 14 12 11 10 9 8 7 6 6 6 6 6 7 7 7 6 6 6 7 7 7 5 4 2 1 5 10 11 10 10 10 11 16 13 17 19 16 15 6 2 8 12 14 15 32 30
19 17 15 14 13 11 9 8 7 6 6 6 7 7 7 6 6 5 5 7 8 7 6 6 5 4 7 2 1 4 9 7 9 16 17 23 20 18 16 11 3 8 12 8 8 31 39
18 17 16 14 13 11 10 9 7 7 7 7 7 7 7 5 5 4 4 6 8 7 7 6 6 9 8 8 8 7 4 11 11 16 18 23 23 18 18 14 9 9 8 6 11 9 24
20 18 17 16 14 12 10 9 8 7 7 7 7 7 6 4 3 2 4 7 8 8 9 7 5 6 4 6 6 10 5 13 16 19 20 21 20 18 21 19 10 1 4 6 5 13 10
20 20 18 16 15 13 11 9 7 7 7 8 7 8 6 3 2 1 2 5 5 9 16 15 13 8 3 2 5 7 6 20 18 23 24 19 20 24 24 17 12 10 10 4 9 7 12
19 19 19 18 16 14 13 11 10 9 8 8 8 8 6 3 1 2 6 3 10 10 11 9 8 6 5 3 4 3 8 11 14 20 20 18 23 19 17 11 11 11 11 3 4 6 6
20 19 19 19 16 14 13 11 10 9 9 9 9 8 6 3 3 7 6 3 7 9 10 12 13 11 9 10 7 6 10 13 10 12 19 19 9 9 9 10 8 9 7 2 4 7 6
20 20 20 19 19 16 14 13 11 10 10 9 8 8 6 4 6 8 7 5 2 5 3 11 11 9 9 8 11 7 8 16 12 12 12 12 10 7 8 10 8 11 6 5 3 8 4
20 20 20 19 18 17 15 13 12 12 11 10 8 8 5 6 9 10 7 4 5 3 3 3 7 6 8 7 7 8 4 7 14 9 9 9 8 5 10 11 12 15 13 6 4 2 2
20 20 19 19 18 17 16 15 13 13 12 10 9 8 6 8 9 6 9 5 2 1 2 2 6 6 4 2 3 3 2 2 4 10 13 14 9 11 10 9 14 20 16 13 8 3 2
22 21 21 20 19 17 17 16 15 14 12 10 10 7 8 9 9 13 10 5 4 2 2 10 12 7 3 7 3 4 0 3 3 6 12 9 7 7 7 10 13 23 23 5 1 2 3
22 23 22 21 20 18 16 16 16 15 12 11 9 7 8 10 13 16 9 5 2 4 9 12 8 7 4 9 3 3 5 5 8 9 11 5 3 9 8 13 16 27 25 7 6 4 4
24 24 23 22 21 19 17 16 15 15 12 10 6 6 10 11 14 15 10 5 3 5 8 11 3 9 10 5 2 8 9 7 3 4 7 4 4 9 3 11 13 28 21 9 6 6 3
25 24 23 22 21 19 17 16 15 15 10 8 5 7 10 12 15 17 11 6 4 7 5 5 7 8 7 6 3 5 4 5 3 3 4 6 13 13 2 6 19 21 19 9 6 5 3
24 23 23 22 21 19 16 15 15 14 9 5 5 10 12 13 15 17 12 7 6 5 3 2 4 4 7 4 1 3 2 3 6 8 6 6 7 13 9 6 9 26 16 8 7 3 6
26 25 25 23 22 20 17 15 14 12 8 7 10 15 12 11 13 16 12 8 4 3 5 3 2 10 4 3 4 3 2 3 8 11 14 10 4 7 8 4 11 18 10 20 12 7 5
29 27 27 26 25 21 17 15 14 10 7 9 16 15 16 14 11 14 11 11 7 3 5 6 5 7 2 3 4 3 9 13 12 10 10 12 6 7 6 4 12 6 5 5 13 8 9
28 28 27 25 24 22 18 15 14 10 9 11 20 17 18 19 13 10 8 12 8 8 9 8 5 4 3 3 5 4 9 15 15 11 10 15 9 6 2 7 7 6 4 2 8 12 10
25 24 23 22 22 20 17 14 14 11 10 13 21 19 25 19 20 21 15 13 9 7 7 11 9 8 6 6 6 2 10 9 2 4 7 15 14 7 7 6 6 5 6 3 0 10 11
24 22 21 21 20 18 18 15 14 11 11 14 21 23 23 16 19 19 19 18 16 11 14 15 11 10 9 12 8 0 4 6 3 3 5 7 19 11 8 15 6 10 5 5 5 2 7
25 22 20 20 19 18 18 17 14 13 11 14 20 25 26 23 19 13 8 11 15 13 14 11 9 9 12 8 6 4 5 3 2 1 3 2 3 21 9 6 14 13 7 4 5 8 5
25 21 20 20 19 18 17 17 16 15 13 15 17 22 26 27 23 15 9 8 12 18 17 10 8 10 9 7 9 12 12 11 8 9 4 5 1 3 3 4 6 18 15 2 5 8 7
28 23 21 20 19 17 16 17 17 17 15 16 17 20 24 29 25 11 9 7 14 10 7 7 5 4 5 9 6 4 2 6 8 8 10 3 6 3 3 4 4 14 18 11 2 4 6
24 22 20 18 15 14 13 15 16 17 17 16 19 18 21 27 28 15 9 15 15 12 10 8 4 4 9 9 3 2 2 4 3 3 6 4 5 6 5 4 7 11 13 11 8 1 8
18 18 17 17 17 16 15 14 16 16 17 16 20 19 21 25 22 21 13 16 17 14 11 8 6 5 11 8 2 3 4 2 3 6 5 2 3 5 4 4 4 15 11 7 6 5 8
17 16 15 15 15 17 20 18 17 17 16 16 21 21 21 25 25 23 13 15 14 15 15 12 10 7 12 6 1 1 1 1 2 8 4 8 5 5 6 4 4 13 14 10 9 12 5
19 17 16 16 16 16 16 19 21 18 17 16 22 22 21 21 21 28 19 17 16 19 17 16 13 12 8 6 4 2 2 2 3 3 4 2 3 5 6 4 5 12 9 14 10 5 3

GFSGBSN_700_spd_114.txt.gz
Wind_Speed
12 12 11 11 10 9 8 7 6 6 6 5 5 5 6 6 6 6 6 6 6 5 3 3 4 5 7 9 11 8 11 13 13 12 13 15 14 12 11 7 5 6 6 10 16 11 21
15 14 12 11 10 9 9 8 7 7 7 7 7 7 7 6 6 5 5 5 6 5 4 2 2 5 7 10 12 9 7 10 12 14 14 15 16 14 12 1 4 5 6 10 14 19 25
15 14 12 11 10 9 8 7 6 6 6 7 7 7 7 6 5 5 5 6 6 5 4 3 1 3 6 7 6 8 10 7 10 16 17 17 17 18 12 4 1 2 4 6 7 24 25
17 16 15 13 12 10 9 7 6 5 5 6 7 7 7 7 6 5 5 5 6 6 7 6 4 4 7 7 6 8 9 10 10 15 17 20 22 19 14 8 4 1 4 6 5 22 25
18 17 15 14 13 11 10 8 7 7 7 7 7 7 7 7 5 4 4 5 4 6 5 5 6 7 6 6 5 3 9 11 11 13 16 20 22 20 16 13 8 3 2 4 4 9 26
18 18 17 15 14 12 10 9 7 6 7 7 8 9 8 6 5 3 4 5 7 12 8 6 4 4 4 4 3 3 9 14 13 15 17 22 23 19 20 15 8 3 1 3 2 5 8
19 18 17 16 14 13 11 9 8 7 7 7 7 8 8 7 4 3 4 5 13 13 13 12 8 4 3 2 1 4 9 15 17 18 17 20 24 24 16 12 10 8 6 4 5 7 4
18 18 17 17 15 13 13 12 10 9 9 8 7 9 8 6 4 4 1 6 14 15 11 11 8 7 5 4 0 2 11 14 17 19 18 19 22 20 14 6 8 10 8 5 2 2 5
19 18 18 18 17 15 13 13 12 11 10 9 8 9 7 5 5 3 3 8 11 13 14 13 11 13 10 10 4 5 9 12 11 15 19 16 7 15 14 10 11 11 7 5 5 8 6
19 19 19 18 18 16 15 14 13 12 11 11 9 8 7 5 5 3 3 7 6 6 5 9 6 7 9 10 9 9 6 10 9 9 12 12 18 7 8 10 10 9 11 8 7 7 4
20 20 20 19 18 17 16 15 15 14 13 12 10 8 8 6 6 7 6 3 4 1 3 3 5 5 5 5 6 3 4 9 9 5 11 10 9 5 7 10 10 10 13 10 7 10 7
22 22 21 21 19 18 17 16 15 15 14 14 11 8 9 7 7 10 8 4 3 1 2 2 7 3 2 6 5 4 4 3 4 6 8 10 9 10 8 6 10 11 13 12 9 7 5
24 24 23 22 21 19 18 17 16 15 14 14 13 9 9 7 9 11 11 6 2 1 2 6 7 2 7 5 1 4 2 4 2 2 7 10 10 9 11 11 11 16 18 3 1 2 5
25 25 25 24 23 21 20 18 17 15 14 14 13 9 8 9 12 15 12 7 2 5 6 5 6 7 3 3 1 1 3 1 4 8 10 7 5 11 10 13 11 20 24 8 6 4 3
27 25 24 23 23 21 20 19 18 16 14 12 11 7 8 10 15 18 13 7 5 5 7 7 4 8 6 6 1 5 5 3 6 5 6 3 4 9 5 7 10 22 27 23 4 3 2
27 26 25 24 22 21 19 18 17 16 13 11 9 7 8 13 18 18 14 8 7 6 5 5 4 4 3 2 2 3 6 6 4 4 3 4 10 7 11 12 16 14 19 11 11 4 4
27 27 26 26 25 23 20 19 16 16 12 9 8 8 11 17 19 19 15 10 9 8 7 4 3 2 3 4 3 3 4 5 3 4 4 9 7 8 7 7 11 19 18 15 9 5 6
27 29 28 28 26 26 23 20 17 14 12 8 9 12 15 16 17 20 18 12 11 6 3 5 6 2 6 5 9 4 3 1 5 9 9 8 10 8 5 5 12 14 20 21 15 7 6
27 27 27 28 26 26 24 21 18 15 11 9 13 16 18 19 17 18 18 13 10 9 6 3 6 1 6 4 3 4 7 9 11 12 9 9 5 7 2 7 1 11 15 21 21 25 14
21 21 24 24 23 22 21 19 17 14 12 10 16 16 20 20 17 16 16 13 12 7 6 8 9 4 4 4 7 6 9 11 16 15 14 11 12 10 4 4 1 4 2 7 18 17 17
19 22 23 23 22 18 18 16 16 14 12 11 18 18 23 20 21 19 16 11 14 8 4 13 13 10 7 9 9 10 8 11 7 5 11 12 13 13 11 6 6 7 3 1 8 12 10
21 23 24 23 21 20 18 15 15 14 13 12 18 22 24 22 18 20 16 14 13 12 11 16 18 13 10 12 13 8 6 5 4 2 6 8 11 14 10 12 10 9 12 12 6 5 4
25 20 25 23 21 20 17 15 15 15 13 13 16 20 25 26 20 20 19 15 12 14 12 15 17 13 11 5 8 9 7 6 5 4 1 3 9 10 14 12 10 15 15 12 8 7 6
22 25 24 24 23 21 18 16 15 15 15 14 15 18 23 27 27 22 16 15 14 14 15 16 16 9 7 5 9 11 13 14 10 10 5 4 7 7 8 13 5 10 23 19 13 15 12
26 25 23 24 21 19 17 15 14 14 15 15 15 17 20 26 28 21 17 17 14 17 19 15 12 7 5 6 8 4 6 7 10 12 10 8 10 7 7 9 5 10 19 26 14 11 9
24 23 20 20 19 18 16 14 12 13 14 16 16 16 19 21 25 25 16 18 14 17 16 16 11 9 6 9 7 5 3 5 5 6 9 9 9 11 8 2 4 7 12 21 7 10 4
21 18 17 16 15 16 17 18 16 13 13 14 17 17 19 21 21 26 19 16 22 19 18 16 15 10 8 11 8 4 6 7 5 7 8 9 8 10 10 5 5 7 11 14 10 5 7
20 17 16 16 15 15 15 15 19 18 14 15 18 18 19 21 17 23 26 17 24 23 21 16 15 11 9 11 8 6 4 4 4 8 9 7 5 4 7 5 5 9 12 9 5 11 6
20 19 18 17 16 16 16 15 15 16 17 16 18 17 19 18 15 26 31 20 21 20 24 21 18 7 11 13 8 4 3 3 3 5 4 1 3 2 4 4 5 9 10 10 7 7 7

GFSGBSN_700_spd_117.txt.gz
Wind_Speed
11 10 10 10 9 9 8 7 6 6 7 7 6 6 6 6 6 6 5 5 5 4 3 3 5 7 8 9 10 8 12 13 13 13 14 14 15 12 9 6 2 1 3 4 5 12 17
14 13 12 11 10 9 8 7 7 6 6 6 7 7 7 6 6 5 5 5 4 4 3 3 3 5 8 9 9 7 9 11 14 16 15 15 15 14 10 3 2 1 3 8 9 6 27
14 14 13 12 11 10 8 7 6 6 6 6 6 7 8 7 6 5 4 4 4 3 3 3 1 3 7 7 9 9 7 7 11 15 16 17 17 17 13 7 2 1 2 6 7 3 25
16 16 15 14 13 11 9 7 6 5 5 6 6 7 8 8 6 5 4 4 3 3 4 4 4 5 7 10 10 10 10 10 9 13 15 16 19 17 12 9 5 5 2 3 4 6 24
18 18 17 16 14 11 9 8 7 6 6 7 6 7 8 8 7 5 4 5 3 3 3 5 8 7 8 9 9 9 11 9 11 10 16 16 19 19 17 11 6 4 3 4 3 5 21
19 19 18 17 15 13 11 9 8 7 7 8 7 8 8 8 7 5 4 3 7 6 5 7 4 4 5 4 4 6 12 13 10 11 16 18 22 21 18 10 8 4 2 1 4 4 15
18 18 17 17 16 14 12 11 10 9 7 7 8 8 8 8 6 4 4 12 10 9 9 7 4 4 3 2 1 2 10 13 12 12 17 20 22 17 14 10 9 6 3 4 4 6 4
18 17 17 17 17 16 14 12 11 10 9 8 8 8 8 7 5 2 6 13 13 12 10 9 10 10 8 4 1 3 9 11 11 13 14 17 17 18 13 6 9 11 9 7 7 9 4
18 18 18 18 17 17 15 14 13 12 11 9 9 8 7 6 4 1 7 13 10 15 13 10 12 12 10 10 3 2 9 8 6 10 13 13 10 17 12 9 9 12 12 9 9 8 7
19 19 20 19 18 18 17 16 14 13 12 10 9 8 6 5 4 4 9 13 8 8 7 7 5 5 7 6 7 8 3 9 6 7 9 7 10 6 10 14 13 12 11 11 10 6 3
20 20 21 21 20 19 18 17 16 15 14 12 9 9 7 5 6 7 9 8 8 4 2 3 3 4 4 4 5 5 6 6 6 3 10 7 11 10 8 12 12 12 11 14 10 10 9
22 21 22 22 22 20 19 19 17 15 14 14 10 8 7 6 8 10 10 8 8 3 1 3 1 3 1 1 2 2 3 4 5 6 5 10 8 8 8 11 12 12 12 13 12 9 6
24 23 23 23 23 22 20 19 19 17 15 15 12 8 8 7 10 13 11 9 4 3 6 3 1 6 5 3 4 4 5 6 3 3 3 6 10 10 10 12 12 16 12 4 6 5 6
26 24 23 23 23 22 20 19 18 17 15 15 13 9 8 9 11 15 15 11 4 7 7 5 5 12 4 3 1 4 7 5 2 3 5 3 5 10 10 16 13 18 16 9 7 4 1
28 27 26 24 23 22 20 18 17 17 15 14 12 9 8 10 14 18 18 12 6 11 11 10 6 8 6 4 4 4 7 4 5 3 5 3 4 3 11 7 11 12 19 18 4 5 5
27 27 27 26 25 24 22 20 17 17 15 13 11 8 9 13 17 22 20 12 9 11 11 9 7 5 1 1 4 5 6 5 5 3 3 2 7 4 10 9 10 13 9 9 13 4 5
27 27 27 27 26 25 24 22 19 17 15 13 10 9 11 15 20 24 22 14 13 13 13 9 8 5 2 2 4 5 7 7 4 2 2 4 5 3 6 8 10 16 14 15 10 8 5
28 26 26 25 25 25 24 23 21 18 16 13 11 12 14 20 23 24 24 16 15 11 13 11 9 3 1 4 7 5 3 3 4 5 8 6 7 11 9 8 11 11 12 17 17 15 7
32 23 20 21 22 22 21 20 19 17 16 13 13 16 16 22 23 22 24 18 15 13 11 12 12 7 1 5 3 7 10 9 8 9 9 8 5 10 8 8 2 5 12 17 21 20 15
28 17 18 20 21 20 19 17 16 15 15 12 14 15 19 24 24 20 22 20 16 13 13 12 14 11 5 3 3 4 6 9 13 16 17 15 15 15 14 7 6 2 4 7 12 15 18
24 20 18 18 20 21 19 16 16 14 13 11 15 16 20 22 25 22 19 17 17 13 11 13 17 15 9 7 7 11 12 10 12 9 8 12 12 13 12 7 8 6 0 10 9 13 10
26 20 24 24 19 21 20 18 15 14 12 12 13 19 20 24 20 23 21 20 17 16 14 12 18 15 13 11 9 11 11 8 6 6 5 9 9 10 15 13 13 13 13 7 9 9 7
21 22 22 22 21 20 19 17 14 14 14 13 12 17 20 23 22 19 21 16 14 15 17 15 16 18 15 10 11 10 10 9 7 8 4 6 8 8 10 10 12 11 20 11 12 8 15
21 22 25 26 23 18 17 15 15 14 14 14 13 15 20 23 24 22 16 18 16 14 13 16 17 17 15 12 8 11 13 15 15 11 9 8 11 10 7 6 12 13 11 21 27 21 18
21 23 24 23 19 17 14 14 14 12 12 13 14 14 17 22 25 23 24 17 18 15 16 18 16 16 13 9 9 8 8 10 13 17 15 13 13 10 7 12 9 11 22 20 18 18 14
23 23 21 21 17 15 13 13 13 12 11 12 14 15 16 18 21 26 21 22 20 16 18 20 19 16 13 8 10 7 5 5 4 6 13 13 14 13 11 4 4 9 12 11 15 9 11
23 23 20 18 15 14 13 12 13 15 13 13 14 15 17 18 18 19 28 21 20 18 21 23 21 16 12 13 13 9 8 8 6 7 10 11 9 11 14 8 6 9 8 12 9 4 7
22 21 20 18 16 15 13 12 12 12 14 16 16 16 17 18 14 20 25 24 21 22 25 23 20 16 14 13 11 8 8 7 6 8 8 10 6 6 9 7 7 8 9 8 8 10 10
22 21 20 19 17 16 15 14 12 12 12 14 18 16 17 16 13 21 27 28 21 26 28 25 22 15 15 13 11 8 7 5 5 2 5 3 8 3 4 4 6 6 10 8 5 7 6

GFSGBSN_700_spd_123.txt.gz
Wind_Speed
14 13 12 11 10 9 7 6 5 5 5 5 5 5 5 5 5 5 5 6 6 5 4 3 5 7 8 9 9 3 12 12 11 10 11 9 10 8 6 8 2 4 3 1 4 7 11
16 15 14 13 12 10 9 8 7 6 5 6 5 5 6 6 5 5 5 5 6 5 4 3 3 6 8 5 10 7 9 12 12 11 12 11 9 11 6 7 4 6 2 0 3 7 5
16 16 15 14 12 11 10 9 8 7 7 7 7 6 7 7 6 5 4 4 4 4 5 3 2 6 12 12 11 9 10 13 14 13 8 11 13 11 7 5 6 7 3 2 6 3 9
15 16 16 16 14 13 12 10 9 8 8 8 8 8 8 7 6 4 4 4 4 3 4 2 3 8 3 9 11 9 8 10 13 14 13 12 14 11 9 9 6 7 8 8 2 2 7
15 16 16 16 16 15 13 12 10 9 9 9 9 9 8 7 6 3 2 3 3 3 2 5 8 7 5 4 6 9 10 3 9 13 14 12 16 10 10 8 11 8 14 7 1 2 7
14 14 14 14 14 14 13 13 12 10 9 9 8 9 9 7 5 3 2 3 4 2 4 6 6 6 3 4 6 7 9 8 5 7 10 11 11 13 14 14 16 12 8 5 3 2 7
13 13 13 13 13 13 13 12 12 12 11 10 9 9 8 6 4 1 6 9 8 8 2 3 3 4 4 5 4 3 7 7 6 9 9 12 14 18 16 16 12 9 1 5 1 6 4
14 14 14 14 14 14 14 13 13 12 12 11 10 10 8 5 3 4 9 3 6 7 5 2 5 7 6 7 3 4 8 8 9 9 11 10 17 14 12 13 13 10 9 9 2 6 6
15 15 15 15 16 16 15 15 14 14 13 12 11 11 8 6 4 6 10 10 8 11 6 2 3 3 2 6 2 5 11 7 8 10 12 14 5 11 14 11 12 13 13 8 5 4 10
18 17 17 17 17 17 17 17 16 15 15 13 12 11 9 6 5 8 13 11 14 9 4 8 5 4 3 6 3 5 11 6 7 10 10 13 11 9 13 14 12 13 11 12 8 8 9
20 20 20 21 20 20 19 19 18 18 16 15 13 12 10 8 7 11 17 15 16 7 6 7 7 7 6 2 4 1 7 7 8 7 11 12 10 11 13 14 13 14 7 9 11 14 14
23 24 24 24 23 23 23 21 21 19 18 17 15 12 12 9 9 12 17 18 14 6 4 7 8 6 6 4 3 4 4 7 5 7 10 9 10 12 10 9 12 10 10 10 11 13 16
24 24 24 24 25 25 25 24 23 22 20 18 17 14 13 11 14 14 18 19 12 15 4 9 10 9 6 6 6 4 5 6 7 9 12 10 12 11 12 11 10 12 12 14 13 12 14
23 24 23 23 24 26 26 25 25 24 22 18 18 16 14 13 13 15 20 13 17 10 13 7 10 10 10 8 7 6 7 10 5 6 4 9 15 14 12 16 13 14 17 21 8 8 8
24 23 24 24 25 27 27 27 27 25 24 18 18 16 14 14 14 19 24 21 22 11 12 10 10 12 12 8 5 8 9 7 3 5 9 3 9 5 7 11 15 13 19 20 23 22 20
24 25 26 23 25 28 27 27 26 25 24 20 17 14 13 14 16 22 23 26 16 12 12 13 14 13 12 11 8 8 11 6 6 5 4 3 9 9 7 11 14 17 12 12 16 16 13
27 28 26 25 28 26 25 24 23 22 21 18 16 8 18 15 19 24 27 22 18 13 14 14 15 8 11 7 10 8 5 5 8 4 4 6 8 4 6 15 17 14 18 19 16 17 8
28 27 25 25 23 24 23 22 18 17 17 15 14 8 18 16 22 23 23 20 19 17 16 14 12 13 11 9 9 9 7 6 9 7 7 3 10 15 16 5 11 9 12 20 20 13 13
25 24 23 23 21 20 20 17 14 12 12 12 13 13 19 17 19 20 21 21 21 20 18 18 16 13 11 8 7 7 7 6 5 7 8 4 9 16 18 18 19 16 21 21 18 19 18
23 21 22 22 20 20 19 21 14 12 11 9 8 5 13 21 23 17 20 23 21 20 20 19 17 15 12 10 8 6 7 7 7 9 15 13 15 17 22 21 9 16 20 18 18 23 23
22 21 21 21 19 20 17 16 17 14 11 15 7 8 10 9 21 20 18 23 23 22 22 20 19 18 16 12 11 9 7 7 8 11 10 8 14 15 19 22 20 20 16 25 16 35 24
20 20 20 19 19 19 19 19 18 16 13 12 18 10 14 15 9 22 22 19 24 26 18 24 22 20 19 17 12 5 7 9 10 9 7 10 14 12 16 19 21 20 22 16 18 17 14
19 19 19 19 18 19 20 20 16 14 11 12 18 13 13 16 14 14 21 21 21 23 22 19 19 19 19 18 15 11 10 9 8 11 11 11 13 15 20 14 15 23 22 24 24 22 25
19 19 19 17 18 17 18 17 14 13 10 12 14 16 14 12 10 15 14 20 23 21 23 18 20 18 18 14 13 11 10 10 10 11 11 13 12 13 19 18 17 21 28 27 24 23 19
20 20 19 20 19 18 18 15 12 12 12 10 12 17 17 22 12 13 11 10 19 21 20 24 17 19 17 15 14 12 13 13 12 13 14 14 14 18 19 22 18 18 14 16 18 26 22
20 20 20 19 21 22 18 14 12 11 11 11 11 14 17 16 24 17 13 11 15 19 18 21 23 18 18 19 16 15 13 8 6 7 8 11 13 15 18 14 5 20 16 14 17 18 17
19 20 20 20 19 18 16 14 13 11 11 11 14 13 16 21 18 22 20 11 13 17 15 22 19 20 20 22 19 16 14 8 10 12 9 10 12 18 20 15 15 8 4 5 9 11 9
19 19 19 20 20 19 16 15 14 13 11 11 12 15 17 19 19 22 23 24 20 17 8 10 15 16 21 21 21 12 12 10 10 13 11 12 15 16 12 8 10 5 6 6 7 10 2
20 20 19 18 18 19 17 16 16 15 13 12 12 13 16 20 15 16 24 27 27 24 22 15 15 15 15 21 19 11 11 10 10 13 9 11 8 12 7 7 9 8 8 9 14 8 5